Regional Weather Roundup
Issued by NWS Lake Charles, LA

Home | Current Version | Previous Version | Text Only | Print | Product List | Glossary On
Versions: 1 2 3 4 5 6 7 8 9 10 11 12 13 14 15 16 17 18 19 20 21 22 23 24 25 26 27 28 29 30 31 32 33 34 35 36 37 38 39 40 41 42 43 44 45 46 47 48 49 50
000
ASUS44 KLCH 030710
RWRLCH
REGIONAL WEATHER ROUNDUP
NATIONAL WEATHER SERVICE LAKE CHARLES LA
200 AM CDT TUE MAY 03 2016

Note: "fair" indicates few or no clouds below 12,000 feet with no
significant weather and/or obstructions to visibility.


ACROSS SOUTHEAST TEXAS

CITY           SKY/WX    TMP DP  RH WIND       PRES   REMARKS
BEAUMONT       CLOUDY    66  61  84 N10       29.99F
BEAUMONT CITY  CLOUDY    66  60  82 N7        30.01F
ORANGE         CLOUDY    65  60  81 N7        30.01F
JASPER         PTCLDY    60  56  84 N6        30.05F
$$

ACROSS CENTRAL LOUISIANA

CITY           SKY/WX    TMP DP  RH WIND       PRES   REMARKS
LEESVILLE      NOT AVBL
FULLERTON      CLOUDY    64  61  90 VRB3      29.99S
ALEXANDRIA INT CLOUDY    63  61  93 NW5       30.00S
ESLER FIELD    CLOUDY    65  60  84 CALM      30.00F
DERIDDER       CLOUDY    63  62  96 N6        30.04S FOG
OAKDALE        CLOUDY    65  60  86 N3        30.00F
OPELOUSAS      CLOUDY   N/A N/A N/A N12G20    29.98F
$$

ACROSS SOUTHWEST AND SOUTH CENTRAL LOUISIANA

CITY           SKY/WX    TMP DP  RH WIND       PRES   REMARKS
SULPHUR        CLOUDY    67  61  81 N10       30.00F
LAKE CHARLES   CLOUDY    66  60  81 N14       29.99F
CHENNAULT INT  CLOUDY    65  62  87 N7        30.00S
CAMERON PHI    NOT AVBL
DEQUINCY       CLOUDY    64  62  93 N6        30.01S
JENNINGS       CLOUDY    64  61  88 N10       29.99S
LAFAYETTE      CLOUDY    68  65  90 N10       29.97F
NEW IBERIA     CLOUDY    68  65  90 N8        29.96F
ABBEVILLE      CLOUDY    68  66  95 N5        29.96F
PATTERSON      NOT AVBL
SALT POINT       N/A     70  68  93 N7        29.92F
$$

SELECTED SITES ACROSS THE REGION

CITY           SKY/WX    TMP DP  RH WIND       PRES   REMARKS
HOUSTON BUSH   PTCLDY    60  55  83 N13       30.04S
HOUSTON HOBBY  MOCLDY    64  56  75 N12       30.02F
GALVESTON      CLOUDY    67  63  87 N14       30.01F
COLLEGE STAT   CLOUDY    58  53  84 N6        30.08S
CONROE         PTCLDY    59  54  83 N7        30.05F
HUNTSVILLE     PTCLDY    58  52  80 VRB3      30.07S
LUFKIN         PTCLDY    57  51  80 N6        30.05S
SHREVEPORT     PTCLDY    58  53  84 NW8       30.03F
MONROE         CLEAR     62  60  93 NW5       30.01F
NATCHEZ MS     CLOUDY    63  59  88 N3        29.98F
BATON ROUGE    CLOUDY    67  64  90 NW5       29.96S
N.O. INTL ARPT CLOUDY    71  67  87 NW5       29.92F
SLIDELL        FOG       68  68 100 CALM      29.92F VSB 1/2
$$

MARINE REPORTS

STATION/POSITION TIME  SKY/WX   TEMP    WIND        PRES    VSBY
                                AIR SEA DIR/SP/G
                 (UTC)          (F)     (DEG/KT/KT) (MB)    (MI)
BUOY 30 S HIGH I 0650            69 74  360/ 17/ 21 1014.7F
WVE H/P(F/S)=  4/ 4

SEA RIM ST PARK  0700            67      10/ 16/ 19 1015.8F
PORT ARTHUR      0600               76   20/ 11/ 15 1016.2F
SABINE PASS N    0600            69 77   10/ 15/ 20 1017.3R
TEXAS POINT      NOT AVBL
CALCASIEU PASS   0600            68 76   30/ 13/ 16 1014.6F
LK CHARLES BEACH 0600            67 74              1016.3R
MARSH ISLAND     NOT AVBL
FRESH WATER LOCK 0600            70 74  330/ 12/ 16 1015.2F
AMERADA PASS     0600            71 72   50/  1/  3 1013.8F
$$



USA.gov is the U.S. government's official web portal to all federal, state and local government web resources and services.